Regional Weather Roundup
Issued by NWS Glasgow, MT

Home | Current Version | Previous Version | Text Only | Print | Product List | Glossary On
Versions: 1 2 3 4 5 6 7 8 9 10 11 12 13 14 15 16 17 18 19 20 21 22 23 24 25 26 27 28 29 30 31 32 33 34 35 36 37 38 39 40 41 42 43 44 45 46 47 48 49 50
000
ASUS45 KGGW 231515
RWRGGW
HOURLY WEATHER ROUNDUP FOR NORTHEAST MONTANA
NATIONAL WEATHER SERVICE GLASGOW MONTANA
900 AM MDT SAT AUG 23 2014

NOTE: "FAIR" INDICATES FEW OR NO CLOUDS BELOW 12,000 FEET WITH NO
SIGNIFICANT WEATHER AND/OR OBSTRUCTIONS TO VISISBILITY.

NORTHEAST MONTANA


CITY           SKY/WX    TMP DP  RH WIND       PRES   REMARKS
GLASGOW        RAIN      54  52  93 NE28G36   30.00F FOG
PLENTYWOOD       N/A     54  51  90 NE18        N/A
WOLF POINT     RAIN      56  53  90 NE23G32   30.03F FOG
JORDAN           N/A     57  55  93 NE21G26   29.94S
WINNETT          N/A     57  55  93 NE14G23     N/A
SIDNEY         CLOUDY    57  55  94 NE12      30.03S
GLENDIVE       CLOUDY    57  57 100 NE20      29.97S
MALTA            N/A     54  52  93 NE14        N/A
SCOBEY           N/A     53  50  89 NE20      30.09S

FORT PECK REPORTS


CITY           SKY/WX    TMP DP  RH WIND       PRES   REMARKS
FORT PECK        N/A     53  53 100 NE33G43     N/A
THE PINES        N/A     55  52  89 NE26G45     N/A

SOUTHEAST MONTANA


CITY           SKY/WX    TMP DP  RH WIND       PRES   REMARKS
BILLINGS       LGT RAIN  57  56  96 SW7       29.88S VSB 1/8
MILES CITY     CLOUDY    62  61  96 N8        29.87F
BAKER          LGT RAIN  60  58  92 E25G32    29.93F
LIVINGSTON     RAIN      50  48  93 CALM      30.01S FOG

CENTRAL MONTANA


CITY           SKY/WX    TMP DP  RH WIND       PRES   REMARKS
HAVRE          LGT RAIN  54  52  93 NE17      30.11S
LEWISTOWN      HVY RAIN  53  51  93 N13       30.00S FOG
GREAT FALLS    RAIN      50  50 100 N14G25    30.10R FOG
CUT BANK       LGT RAIN  45  43  93 N20       30.24R
HELENA         RAIN      48  45  87 NW10      30.13R FOG
BUTTE          RAIN      45  42  89 NW10      30.13R FOG
BOZEMAN        LGT RAIN  48  46  93 W9        30.06R FOG

WESTERN MONTANA


CITY           SKY/WX    TMP DP  RH WIND       PRES   REMARKS
MISSOULA       LGT RAIN  53  46  77 NW9       30.16R
KALISPELL      NOT AVBL

NORTH DAKOTA


CITY           SKY/WX    TMP DP  RH WIND       PRES   REMARKS
WILLISTON      LGT RAIN  56  53  90 NE13      30.07S
DICKINSON      LGT RAIN  57  56  96 NE16      29.97F
MINOT          CLOUDY    57  52  83 NE14      30.08S
BISMARCK       LGT RAIN  60  59  96 NE15      30.00F

SOUTHERN SASKATCHEWAN


CITY           SKY/WX    TMP DP  RH WIND       PRES   REMARKS
REGINA         CLOUDY    54  48  82 NE17      30.21S
ESTEVAN        DRIZZLE   54  52  94 NE14G23   30.14S FOG
SWIFT CURRENT  CLOUDY    52  50  93 E18G24    30.21S



USA.gov is the U.S. government's official web portal to all federal, state and local government web resources and services.